FW6321 Weather Reports


time (UTC)temp
C
wind
direction
speed
KPH
gust
KPH
rain 1hr
cm
rain 24hr
cm
rain mn
cm
humidity
%
barometer
mb
20260831144923 20 249 22.5 40.2 0.00 0.15 0.15 75 1012.6
20260831144424 20 223 24.1 41.8 0.00 0.15 0.15 74 1012.5
20260831143924 20 243 24.1 41.8 0.00 0.15 0.15 73 1012.5
20260831143915 20 254 20.9 41.8 0.00 0.15 0.15 72 1012.3
20260831142923 20 208 19.3 33.8 0.00 0.15 0.15 75 1012.3
20260831142423 20 241 20.9 43.5 0.00 0.15 0.15 75 1012.2
20260831141921 20 214 22.5 43.5 0.00 0.15 0.15 74 1012.1
20260831141416 20 231 20.9 45.1 0.00 0.15 0.15 73 1012.0
20260831140913 20 206 19.3 45.1 0.00 0.15 0.15 71 1011.9
20260831140857 20 229 20.9 43.5 0.00 0.15 0.15 70 1011.8
20260831140356 20 275 20.9 43.5 0.00 0.15 0.15 69 1011.6
20260831135414 20 214 19.3 43.5 0.00 0.15 0.15 70 1011.4
20260831135346 20 216 22.5 46.7 0.00 0.15 0.15 70 1011.4
20260831134414 20 235 22.5 46.7 0.00 0.15 0.15 69 1011.4
20260831133911 20 229 17.7 41.8 0.00 0.15 0.15 69 1011.4
20260831133410 21 242 20.9 48.3 0.00 0.15 0.15 70 1011.4
20260831132910 20 233 25.7 48.3 0.00 0.15 0.15 70 1011.2
20260831132410 20 180 25.7 48.3 0.00 0.15 0.15 69 1011.3
20260831132358 20 239 24.1 46.7 0.00 0.15 0.15 70 1011.3
20260831131410 21 239 22.5 49.9 0.00 0.15 0.15 68 1011.1
20260831130908 21 229 20.9 49.9 0.00 0.15 0.15 70 1011.0
20260831130404 20 233 17.7 32.2 0.00 0.15 0.15 74 1011.0
20260831125906 19 216 20.9 38.6 0.00 0.15 0.15 76 1010.9
20260831125404 20 241 24.1 46.7 0.00 0.15 0.15 74 1010.9
20260831124909 19 247 24.1 46.7 0.00 0.15 0.15 74 1010.6
20260831124403 20 227 22.5 45.1 0.00 0.15 0.15 74 1010.7
20260831123904 20 235 22.5 45.1 0.00 0.15 0.15 74 1010.6
20260831123357 20 251 17.7 38.6 0.00 0.15 0.15 74 1010.5
20260831122853 20 212 17.7 43.5 0.00 0.15 0.15 73 1010.6
20260831122345 20 236 19.3 43.5 0.00 0.15 0.15 71 1010.4
20260831121838 21 236 19.3 40.2 0.00 0.15 0.15 71 1010.5
20260831121335 20 229 22.5 40.2 0.00 0.15 0.15 71 1010.3
20260831120833 20 228 22.5 40.2 0.00 0.15 0.15 70 1010.2
20260831120333 20 281 24.1 53.1 0.00 0.15 0.15 70 1010.3
20260831115833 20 227 25.7 53.1 0.00 0.15 0.15 71 1010.3
20260831115331 20 236 24.1 46.7 0.00 0.15 0.15 72 1010.2
20260831115318 19 214 19.3 40.2 0.00 0.15 0.15 74 1010.1
20260831114817 19 278 19.3 40.2 0.00 0.15 0.15 75 1010.0
20260831114321 20 92 17.7 33.8 0.00 0.15 0.15 77 1010.0
20260831113334 20 219 14.5 33.8 0.00 0.15 0.15 78 1009.9
20260831113316 20 241 14.5 32.2 0.00 0.15 0.15 80 1009.8
20260831113041 20 192 12.9 32.2 0.00 0.15 0.15 80 1009.9
20260831112315 20 188 14.5 30.6 0.00 0.15 0.15 79 1009.7
20260831111332 20 252 16.1 32.2 0.00 0.15 0.15 80 1009.7
20260831110832 19 237 16.1 32.2 0.00 0.15 0.15 81 1009.7
20260831110333 19 270 14.5 29.0 0.00 0.15 0.15 83 1009.7
20260831105830 18 220 16.1 46.7 0.00 0.15 0.15 84 1009.8
20260831105333 19 221 17.7 46.7 0.00 0.15 0.15 80 1009.8
20260831104833 20 197 16.1 41.8 0.00 0.15 0.15 75 1009.7
20260831104327 20 226 17.7 37.0 0.00 0.15 0.15 74 1009.7
20260831103827 20 230 17.7 40.2 0.00 0.15 0.15 74 1009.5
20260831103325 20 257 16.1 40.2 0.00 0.15 0.15 74 1009.5
20260831102827 20 237 16.1 40.2 0.00 0.15 0.15 77 1009.4
20260831102327 19 245 16.1 40.2 0.00 0.15 0.15 76 1009.3
20260831101828 19 219 14.5 33.8 0.00 0.15 0.15 76 1009.3
20260831101326 19 220 16.1 37.0 0.00 0.15 0.15 77 1009.3
20260831100827 19 204 17.7 37.0 0.00 0.15 0.15 76 1009.4
20260831100326 20 236 16.1 33.8 0.00 0.15 0.15 76 1009.3
20260831095825 20 264 14.5 32.2 0.00 0.15 0.15 76 1009.3
20260831095327 20 202 12.9 32.2 0.00 0.15 0.15 76 1009.1
20260831094825 20 231 16.1 30.6 0.00 0.15 0.15 77 1009.2
20260831094327 19 227 19.3 38.6 0.00 0.15 0.15 78 1009.2
20260831093826 19 245 20.9 38.6 0.00 0.15 0.15 78 1009.2
20260831093327 19 213 17.7 45.1 0.00 0.15 0.15 79 1009.3
20260831092826 19 210 16.1 45.1 0.00 0.15 0.15 80 1009.1
20260831092325 18 220 20.9 38.6 0.00 0.15 0.15 79 1009.2
20260831091827 18 206 20.9 48.3 0.00 0.15 0.15 80 1009.0
20260831091327 18 212 16.1 48.3 0.00 0.15 0.15 81 1009.0
20260831090825 18 239 16.1 37.0 0.00 0.15 0.15 82 1008.9
20260831090327 18 146 19.3 37.0 0.00 0.15 0.15 82 1009.0
20260831085824 18 227 20.9 38.6 0.00 0.15 0.15 82 1008.9
20260831085326 18 214 17.7 43.5 0.00 0.15 0.15 83 1008.8
20260831084825 18 175 16.1 43.5 0.00 0.15 0.15 85 1008.9
20260831084324 18 165 17.7 38.6 0.00 0.15 0.15 86 1008.8
20260831083823 18 235 20.9 41.8 0.00 0.15 0.15 85 1008.7
20260831083802 17 181 17.7 41.8 0.00 0.15 0.15 85 1008.6
20260831083310 17 278 17.7 37.0 0.00 0.15 0.15 86 1008.7
20260831082327 17 225 20.9 41.8 0.00 0.15 0.15 85 1008.6
20260831082316 17 283 20.9 43.5 0.00 0.15 0.15 86 1008.5
20260831081758 17 149 16.1 43.5 0.00 0.15 0.15 86 1008.5
20260831081300 17 183 14.5 37.0 0.00 0.15 0.15 86 1008.6
20260831080318 17 198 16.1 32.2 0.00 0.18 0.15 86 1008.4
20260831075820 17 202 17.7 45.1 0.00 0.18 0.15 87 1008.5
20260831075317 17 202 19.3 49.9 0.00 0.18 0.15 87 1008.5
20260831074817 17 194 16.1 49.9 0.00 0.20 0.15 87 1008.5
20260831074320 17 203 14.5 35.4 0.00 0.23 0.15 88 1008.5
20260831073819 17 216 14.5 25.7 0.00 0.23 0.15 89 1008.5
20260831073318 17 219 14.5 27.4 0.00 0.23 0.15 89 1008.4
20260831072818 17 214 14.5 30.6 0.03 0.23 0.15 90 1008.5
20260831072317 17 177 12.9 30.6 0.05 0.23 0.15 90 1008.4
20260831071820 17 179 14.5 37.0 0.05 0.23 0.15 91 1008.5
20260831071802 16 193 14.5 37.0 0.05 0.23 0.15 91 1008.6
20260831070810 16 216 12.9 27.4 0.05 0.23 0.15 92 1008.6
20260831070309 16 229 12.9 29.0 0.05 0.23 0.15 92 1008.5
20260831065812 16 174 12.9 35.4 0.05 0.23 0.15 92 1008.6
20260831065312 16 185 14.5 35.4 0.05 0.23 0.15 92 1008.7
20260831064826 16 179 14.5 33.8 0.15 0.23 0.15 92 1008.7
20260831064811 16 153 16.1 33.8 0.15 0.23 0.15 92 1008.7
20260831063812 16 154 12.9 30.6 0.15 0.23 0.15 93 1008.7
20260831063309 16 210 11.3 27.4 0.15 0.23 0.15 92 1009.0
20260831062810 16 176 9.7 24.1 0.13 0.23 0.13 92 1008.9
20260831062310 16 174 9.7 20.9 0.10 0.20 0.10 92 1009.0
20260831061809 16 214 9.7 20.9 0.10 0.20 0.10 92 1009.0
20260831061309 16 155 8.0 16.1 0.10 0.20 0.10 91 1008.9
20260831060809 16 181 9.7 27.4 0.10 0.20 0.10 91 1009.0
20260831060313 17 163 11.3 27.4 0.10 0.20 0.10 90 1008.9
20260831055810 17 172 12.9 27.4 0.10 0.20 0.10 89 1008.8
20260831055754 17 202 14.5 27.4 0.08 0.18 0.05 88 1008.6
20260831055249 17 196 12.9 30.6 0.00 0.10 0.00 88 1008.7
20260831054753 17 204 11.3 30.6 0.00 0.10 0.00 88 1008.6
20260831053806 17 116 11.3 27.4 0.00 0.10 0.00 89 1008.6
20260831053308 17 160 9.7 27.4 0.00 0.10 0.00 89 1008.5
20260831052809 17 218 9.7 25.7 0.00 0.10 0.00 89 1008.5
20260831052307 17 193 12.9 27.4 0.00 0.13 0.00 89 1008.5
20260831051803 17 181 11.3 27.4 0.00 0.13 0.00 89 1008.6
20260831051741 17 188 12.9 24.1 0.00 0.13 0.00 90 1008.6
20260831051509 17 254 11.3 25.7 0.00 0.13 0.00 90 1008.6
20260831050309 17 181 11.3 24.1 0.00 0.13 0.00 90 1008.5
20260831050255 17 226 9.7 17.7 0.00 0.15 0.00 90 1008.5
20260831045748 17 170 11.3 25.7 0.00 0.15 0.00 90 1008.6
20260831045233 17 174 11.3 25.7 0.00 0.15 0.00 90 1008.6
20260831044303 17 164 9.7 22.5 0.00 0.15 0.00 90 1008.7
20260831043800 17 182 9.7 22.5 0.00 0.15 0.00 90 1008.7
20260831043257 17 218 9.7 25.7 0.00 0.15 0.00 90 1008.9
20260831042757 17 156 9.7 29.0 0.00 0.15 0.00 90 1008.7
20260831042257 17 205 11.3 29.0 0.00 0.15 0.00 89 1008.5
20260831041756 17 195 12.9 29.0 0.00 0.15 0.00 89 1008.5
20260831041736 17 202 14.5 29.0 0.00 0.15 0.00 89 1008.4
20260831040756 17 172 12.9 27.4 0.00 0.15 0.00 89 1008.4
20260831040256 17 186 12.9 25.7 0.00 0.15 0.00 89 1008.5
20260831035754 17 178 12.9 25.7 0.00 0.15 0.00 89 1008.4
20260831035255 17 209 11.3 22.5 0.00 0.15 0.00 89 1008.6
20260831034755 17 188 11.3 24.1 0.00 0.15 0.00 88 1008.5
20260831034254 17 209 11.3 24.1 0.00 0.15 0.00 88 1008.7
20260831033756 17 169 12.9 27.4 0.00 0.15 0.00 88 1008.6
20260831033257 17 180 11.3 27.4 0.00 0.15 0.00 88 1008.6
20260831033236 17 210 9.7 19.3 0.00 0.15 0.00 88 1008.7
20260831032256 17 187 9.7 19.3 0.00 0.15 0.00 88 1008.7
20260831031750 17 204 11.3 24.1 0.00 0.15 0.00 88 1008.7
20260831031734 17 194 11.3 24.1 0.00 0.15 0.00 88 1008.7
20260831030748 17 219 9.7 19.3 0.00 0.15 0.00 88 1008.8
20260831030733 17 219 9.7 22.5 0.00 0.15 0.00 88 1009.1
20260831030449 17 212 9.7 19.3 0.00 0.15 0.00 88 1008.9
20260831025240 17 191 9.7 22.5 0.00 0.15 0.00 88 1009.0
20260831024740 17 243 9.7 22.5 0.00 0.15 0.00 88 1009.1
20260831024239 17 203 9.7 22.5 0.00 0.18 0.00 89 1009.1
20260831023738 17 247 9.7 24.1 0.00 0.18 0.00 89 1009.1
20260831023238 17 205 11.3 24.1 0.00 0.18 0.00 89 1009.0
20260831023213 17 200 11.3 25.7 0.00 0.18 0.00 89 1009.0
20260831022238 17 218 9.7 25.7 0.00 0.18 0.00 90 1009.0
20260831021738 17 202 6.4 16.1 0.00 0.18 0.00 90 1009.0
20260831021240 17 151 6.4 12.9 0.00 0.20 0.00 90 1008.9
20260831021223 17 172 6.4 12.9 0.00 0.20 0.00 89 1008.8
20260831020712 17 187 8.0 17.7 0.00 0.20 0.00 89 1008.9
20260831015738 17 175 8.0 17.7 0.00 0.20 0.00 89 1008.9
20260831015240 17 183 8.0 17.7 0.00 0.20 0.00 89 1008.8
20260831014737 17 189 8.0 17.7 0.00 0.20 0.00 89 1008.8
20260831014725 17 179 8.0 12.9 0.00 0.20 0.00 89 1008.9
20260831013735 17 175 6.4 12.9 0.00 0.20 0.00 89 1008.9
20260831013703 17 176 6.4 14.5 0.00 0.20 0.00 88 1009.0
20260831013437 17 172 6.4 14.5 0.00 0.20 0.00 89 1009.1
20260831012230 17 192 6.4 12.9 0.00 0.20 0.00 88 1009.1
20260831011733 17 179 6.4 14.5 0.00 0.20 0.00 88 1009.1
20260831011234 17 185 6.4 14.5 0.00 0.20 0.00 88 1009.2
20260831010732 17 208 6.4 12.9 0.00 0.20 0.00 87 1009.3
20260831010232 17 191 6.4 12.9 0.00 0.20 0.00 87 1009.3
20260831005732 17 162 6.4 11.3 0.00 0.20 0.00 87 1009.3
20260831005232 17 202 6.4 11.3 0.00 0.20 0.00 87 1009.2
20260831004732 17 179 4.8 14.5 0.00 0.20 0.00 86 1009.4
20260831004234 17 186 4.8 14.5 0.00 0.20 0.00 86 1009.3
20260831003734 17 144 6.4 11.3 0.00 0.20 0.00 86 1009.3
20260831003232 17 197 6.4 14.5 0.00 0.20 0.00 86 1009.3
20260831002731 17 197 6.4 14.5 0.00 0.20 0.00 86 1009.4
20260831002719 18 230 6.4 12.9 0.00 0.20 0.00 86 1009.5
20260831001734 18 161 6.4 12.9 0.00 0.20 0.00 86 1009.5
20260831001233 18 233 6.4 12.9 0.00 0.20 0.00 86 1009.5
20260831000733 18 192 4.8 11.3 0.00 0.20 0.00 86 1009.7
20260831000229 18 156 4.8 12.9 0.00 0.20 0.00 86 1009.6
20260830235723 18 170 6.4 14.5 0.00 0.20 0.00 86 1009.6
20260830235217 18 197 6.4 14.5 0.00 0.20 0.00 85 1009.6
20260830234716 18 170 4.8 11.3 0.00 0.20 0.00 85 1009.8
20260830234213 18 198 3.2 11.3 0.00 0.20 0.00 85 1009.8
20260830233714 18 197 4.8 11.3 0.00 0.20 0.00 84 1009.8
20260830233215 18 185 4.8 11.3 0.00 0.20 0.00 84 1009.8
20260830232712 18 229 4.8 12.9 0.00 0.20 0.00 85 1009.8
20260830232215 18 196 6.4 16.1 0.00 0.20 0.00 85 1009.8
20260830232146 18 180 4.8 16.1 0.00 0.20 0.00 85 1009.8
20260830231214 18 195 6.4 16.1 0.00 0.20 0.00 86 1009.8
20260830230714 18 170 8.0 16.1 0.00 0.20 0.00 86 1009.9
20260830230651 18 166 6.4 14.5 0.00 0.20 0.00 87 1009.8
20260830225714 18 189 6.4 14.5 0.00 0.20 0.00 87 1009.8
20260830225212 18 170 4.8 14.5 0.00 0.20 0.00 88 1009.8
20260830224712 18 179 6.4 16.1 0.00 0.20 0.00 88 1009.8
20260830224659 18 199 6.4 16.1 0.00 0.20 0.00 88 1009.9
20260830223712 18 179 6.4 14.5 0.00 0.20 0.00 88 1009.8
20260830223211 18 190 6.4 14.5 0.00 0.20 0.00 88 1009.9
20260830222710 18 181 4.8 11.3 0.00 0.20 0.00 87 1009.9
20260830222206 18 175 1.6 9.7 0.00 0.20 0.00 87 1009.9
20260830221708 18 163 1.6 3.2 0.00 0.20 0.00 86 1009.9
20260830221206 18 163 1.6 6.4 0.00 0.20 0.00 86 1010.0
20260830221147 18 163 3.2 6.4 0.00 0.20 0.00 86 1010.0
20260830220643 18 137 3.2 6.4 0.00 0.20 0.00 85 1010.0
20260830215732 18 166 3.2 8.0 0.00 0.20 0.20 85 1010.0
20260830215709 18 163 3.2 8.0 0.00 0.20 0.20 85 1010.0
20260830215126 18 153 3.2 8.0 0.00 0.20 0.20 84 1010.1
20260830214204 18 162 3.2 8.0 0.00 0.20 0.20 84 1010.1
20260830213705 18 172 4.8 8.0 0.00 0.20 0.20 84 1010.2
20260830213204 18 177 4.8 8.0 0.00 0.20 0.20 84 1010.3
20260830212706 18 167 4.8 8.0 0.00 0.20 0.20 83 1010.3
20260830212202 19 204 4.8 11.3 0.00 0.20 0.20 83 1010.4
20260830211705 19 166 6.4 11.3 0.00 0.20 0.20 83 1010.3
20260830211203 19 188 6.4 12.9 0.00 0.20 0.20 82 1010.5
20260830211141 19 202 6.4 12.9 0.00 0.20 0.20 82 1010.5
20260830210648 19 182 4.8 9.7 0.00 0.20 0.20 82 1010.5
20260830205704 19 174 4.8 9.7 0.00 0.20 0.20 82 1010.4
20260830205203 19 162 6.4 11.3 0.00 0.20 0.20 82 1010.4
20260830204705 20 187 8.0 14.5 0.00 0.20 0.20 81 1010.4
20260830204645 20 206 9.7 20.9 0.00 0.20 0.20 81 1010.5
20260830203704 20 175 9.7 20.9 0.00 0.20 0.20 82 1010.5
20260830203205 19 146 8.0 17.7 0.00 0.20 0.20 82 1010.4
20260830202704 19 154 4.8 16.1 0.00 0.20 0.20 83 1010.4
20260830202659 19 178 3.2 8.0 0.00 0.20 0.20 83 1010.5
20260830202125 19 131 3.2 9.7 0.00 0.20 0.20 82 1010.5
20260830201907 19 166 3.2 9.7 0.00 0.20 0.20 82 1010.5
20260830200702 19 161 1.6 4.8 0.00 0.20 0.20 82 1010.5
20260830200204 19 193 1.6 6.4 0.00 0.33 0.20 82 1010.6
20260830195704 19 172 1.6 8.0 0.00 1.07 0.20 82 1010.6
20260830195204 19 166 1.6 8.0 0.00 1.37 0.20 82 1010.6
20260830195145 20 166 1.6 4.8 0.00 1.40 0.20 82 1010.6
20260830194641 20 166 1.6 4.8 0.00 1.45 0.20 81 1010.6
20260830193703 20 166 0.0 3.2 0.00 1.52 0.20 81 1010.6
20260830193637 20 166 1.6 6.4 0.00 1.55 0.20 81 1010.6
20260830192706 20 166 1.6 6.4 0.00 1.55 0.20 81 1010.6
20260830192205 20 148 1.6 4.8 0.00 1.63 0.20 81 1010.7
20260830191706 20 148 1.6 4.8 0.00 1.65 0.20 80 1010.6
20260830191202 20 147 1.6 4.8 0.00 1.65 0.20 80 1010.6
20260830190705 20 145 1.6 4.8 0.00 1.65 0.20 80 1010.6
20260830190202 20 150 1.6 4.8 0.00 1.65 0.20 80 1010.6
20260830185703 20 150 1.6 4.8 0.00 1.65 0.20 80 1010.6
20260830185204 20 160 3.2 8.0 0.00 1.65 0.20 79 1010.6
20260830184705 20 162 3.2 8.0 0.00 1.65 0.20 79 1010.8
20260830184203 20 187 1.6 8.0 0.00 1.65 0.20 78 1010.7
20260830183703 20 157 3.2 8.0 0.00 1.65 0.20 78 1010.8
20260830183642 20 170 4.8 8.0 0.00 1.65 0.20 78 1010.8
20260830183135 20 144 4.8 11.3 0.00 1.65 0.20 78 1010.8
20260830182206 20 183 4.8 11.3 0.00 1.65 0.20 79 1010.8
20260830182127 21 180 4.8 11.3 0.00 1.65 0.20 80 1010.9
20260830181909 20 202 4.8 11.3 0.00 1.65 0.20 79 1010.9
20260830180704 21 154 4.8 9.7 0.00 1.65 0.20 81 1011.0
20260830180204 21 152 1.6 8.0 0.00 1.65 0.20 81 1010.9
20260830175703 21 162 1.6 3.2 0.00 1.65 0.20 80 1010.9
20260830175642 21 163 3.2 8.0 0.00 1.65 0.20 80 1010.8
20260830174703 21 181 4.8 9.7 0.00 1.65 0.20 80 1010.9
20260830174206 21 168 4.8 9.7 0.00 1.65 0.20 80 1011.0
20260830173703 21 154 4.8 11.3 0.00 1.65 0.20 79 1011.1
20260830173202 21 176 4.8 11.3 0.00 1.65 0.20 79 1011.2
20260830172703 21 157 3.2 9.7 0.00 1.65 0.20 78 1011.1
20260830172203 21 168 4.8 11.3 0.00 1.65 0.20 79 1011.2
20260830171704 21 172 3.2 11.3 0.00 1.65 0.20 79 1011.2
20260830171202 21 186 3.2 6.4 0.00 1.65 0.20 79 1011.4
20260830170703 21 169 4.8 11.3 0.00 1.65 0.20 78 1011.3
20260830170202 21 188 4.8 11.3 0.00 1.65 0.20 78 1011.2
20260830170140 21 185 4.8 12.9 0.00 1.65 0.20 78 1011.4
20260830165205 21 212 4.8 12.9 0.00 1.65 0.20 78 1011.4
20260830164705 21 179 4.8 11.3 0.00 1.65 0.20 78 1011.4
20260830164659 21 249 4.8 9.7 0.00 1.65 0.20 78 1011.4
20260830163702 21 179 4.8 11.3 0.00 1.65 0.20 78 1011.5
20260830163204 21 199 6.4 12.9 0.00 1.65 0.20 77 1011.4
20260830162703 21 205 6.4 12.9 0.00 1.65 0.20 77 1011.5
20260830162205 21 252 6.4 16.1 0.00 1.65 0.20 76 1011.5
20260830161703 21 248 6.4 16.1 0.00 1.65 0.20 76 1011.5
20260830161203 21 239 4.8 12.9 0.00 1.65 0.20 76 1011.5
20260830160700 22 229 4.8 12.9 0.00 1.65 0.20 76 1011.5
20260830160202 22 236 6.4 14.5 0.00 1.65 0.20 76 1011.5
20260830155701 22 209 6.4 16.1 0.00 1.65 0.20 75 1011.6
20260830155157 22 217 8.0 19.3 0.00 1.65 0.20 75 1011.6
20260830154649 22 222 8.0 19.3 0.00 1.65 0.20 74 1011.6
20260830154150 22 217 8.0 19.3 0.00 1.65 0.20 74 1011.6
20260830153652 22 226 6.4 14.5 0.00 1.65 0.20 74 1011.6
20260830153346 22 229 6.4 16.1 0.00 1.65 0.20 74 1011.6
20260830152854 22 235 6.4 16.1 0.00 1.65 0.20 74 1011.7
20260830152132 22 189 9.7 19.3 0.00 1.65 0.20 74 1011.8
20260830151147 22 164 9.7 19.3 0.00 1.65 0.20 74 1011.9
20260830150649 22 195 9.7 22.5 0.00 1.65 0.20 74 1012.0
20260830150147 22 236 12.9 25.7 0.00 1.65 0.20 73 1012.0
20260830145649 22 201 12.9 25.7 0.00 1.65 0.20 74 1011.9